sat.trackr.live / text

‹ back to catalog

STARLINK-34779

NORAD 65058 · 2025-165C

PAYLOAD ACTIVE UNKNOWN

§ Identity

Operator
Country
US
Launch date
2025-07-31
Launch site
AFWTR
Launch vehicle
Mass (kg)
RCS (m²)

Purposes: comms

External: N2YO · Heavens-Above · Gunter

§ Orbital elements

Epoch: 2026-09-20T16:06:12.367008Z

Period
93.91 min
Inclination
97.2845°
Eccentricity
0.0001210
Mean motion
15.33445561 rev/d
Perigee alt
464.7 km
Apogee alt
466.4 km
Semi-major
6,843.7 km
B*
7.3107e-4
RAAN
334.9163°
Arg perigee
85.7255°
Mean anomaly
274.4126°
Rev number
6,415

§ Raw data

STARLINK-347791 65058U 25165C   26263.67097647  .00023601  00000+0  73107-3 0  99902 65058  97.2845 334.9163 0001210  85.7255 274.4126 15.33445561 64155

JSON: /api/v1/satellites/65058 · /tle

For live sub-satellite position, see the globe view (requires WebGL).

§ Visibility from observer

Set your observer location to see the next 7 days of passes ≥ 10°. The values pass through the URL so the page stays shareable.

No JS? Fill the form by hand. The geolocation button needs JavaScript.